THOR ABLESTAR DEB, 150

Orbit data source: Space-Track

THOR ABLESTAR DEB, 150 is space debris in LEO originally from a launch on Thu, 29 Jun 1961 UTC launched from the Air Force Eastern Test Range (AFETR). Debris objects in space refer to the collection of defunct objects orbiting the Earth. Examples of debris include non-operational satellites, rocket bodies, and fragments generated from explosions, collisions, or faulty payload assembly.

Loading next visibility...
Identifier
150, 1961-015AL
Orbit
LEO
Last TLE update
15 hours ago
Origin
Manufacturer
Unknown
Mission
Spacecraft
Bus & Motor
Unknown
Mass
Unknown
Launch date (UTC)
1961-06-29 (64 years ago)
Launch vehicle
Unknown
Launch site
Air Force Eastern Test Range (AFETR)
Object type
Payload
Rocket body
Debris
Shape & HBR
Unknown
Radar Cross Section
Medium (>0.1 m² and <1 m²)

Expand to show TLE details & history

TLE from 15 hours ago
0 THOR ABLESTAR DEB
1 00150U 61015AL  25191.83498447  .00000105  00000-0  16522-3 0  9999
2 00150  66.2484  25.0169 0051028  95.0728 265.6170 13.83478651 61277
Epoch: 2025-07-10T20:02Z
TLE epoch observation values (Epoch: 2025-07-10T20:02:22.658Z)
Latitude
0.00002°
Longitude
155.42693°
Altitude
956.649 km
Speed
7.372 km/s
True Right ascension
01h 40m 04s
True Declination
0° 00' 00"
Sunlit
Object was in daylight at epoch
Visualization orbit readout
Latitude
-51.1722°
Longitude
6.83574°
Altitude
1,000.491 km
Speed
7.336 km/s
Apparent Right ascension
13h 29m 33s
Apparent Declination
-50° 46' 34"
Sunlit
Object is in full shadow
Visualization observer readout
Local Sidereal Time
23:21:40
Azimuth
233.258° WSW
Elevation
-65.302°
Doppler factor
1
Orbital elements
Apogee altitude
987.431 km
Perigee altitude
912.643 km
Semi-major axis
7,328.174 km
Eccentricity
0.0051
Inclination
66.2484°
RAAN
25.0169°
Arg. of periapsis
95.0728°
True anomaly
Unknown
Mean anomaly
265.617°
Eccentric anomaly
Unknown
Mean motion
3.45979 °/min
Orbital period
104.05 mins
BSTAR
0.00016522
Loading maneuver chart data...
Loading SW <> Apogee altitude chart data...

THOR ABLESTAR DEB Visibility forecast

Observer location: undefined°, undefined°

Span
Click to sort rows by Start time (UTC) header in descending order
Start Az.
Max El. time (UTC)
Max El. Az.
Max El.
End time (UTC)
End Az.
10 mins2025-07-11 13:29:41.908Z165.145° S2025-07-11 13:34:41.908Z108.376° ESE25.703°2025-07-11 13:39:41.908Z51.865° ENE
10 mins2025-07-11 15:16:41.908Z236.87° WSW2025-07-11 15:21:41.908Z312.244° NW35.827°2025-07-11 15:26:41.908Z17.155° NNE
9 mins2025-07-11 22:36:41.908Z353.681° N2025-07-11 22:40:41.908Z48.699° ENE29.259°2025-07-11 22:45:41.908Z111.864° ESE
9 mins2025-07-12 00:23:41.908Z309.771° NW2025-07-12 00:27:41.908Z253.148° W33.2°2025-07-12 00:32:41.908Z183.784° SSW
|